Voltar ao catálogo

DELTA 1 DEB

AtivoLEO
NORAD 10626·DEBRIS·🇺🇸 United States

Lançado Jul 14, 1977 de Cape Canaveral Space Force Station

Loading…

Próximas Passagens (próximas 24 horas)

TLE

AtualizadoSource: Space-Track

Época: Sep 14, 2026, 14:18 UTC

1 10626U 77065EV  26257.59617835  .00001624  00000-0  36870-3 0  9996
2 10626  29.1791  11.0683 0653003 285.7375  67.2143 13.68659158394875

Acompanhe DELTA 1 DEB em tempo real com AllMySat

Download on the App Store